Location: Newark
(35.6799°N, 139.7636°E)
Time: 22:45:54
(UTC+00:00)

Courier 1B - Pass Details

Date: 19 December 2019
Orbit: 962 x 1209 km, 28.3° (Epoch: 21 January)

Event Time Altitude Azimuth Distance (km) Brightness Sun altitude
Rises 08:37:48 0° 241° (WSW) 3,661 12.4 -13.4°
Reaches altitude 10° 08:40:35 10° 233° (SW) 2,736 11.1 -13.9°
Maximum altitude 08:46:38 38° 167° (SSE) 1,500 8.5 -15.1°
Enters shadow 08:51:39 16° 107° (ESE) 2,461 9.1 -16.1°
